Location: Sears
(37.7625°N, 100.1060°W)
Time: 08:14:57
(UTC+00:00)

X-37B - Visible Passes

Search period start: 30 July 2021 00:00
Search period end: 09 August 2021 00:00
Orbit: 383 x 392 km, 45.0° (Epoch: 01 July)

Date Brightness Start Highest point End Pass type
(mag) Time Alt. Az. Time Alt. Az. Time Alt. Az.
30 Jul 2.6 09:59:38 18° SSE 09:59:58 19° SE 10:02:19 10° E visible
31 Jul 0.6 10:36:10 23° SW 10:38:00 74° SSE 10:41:11 10° ENE visible
01 Aug 1.9 09:40:22 32° ESE 09:40:22 32° ESE 09:42:41 10° ENE visible
01 Aug 1.7 11:13:20 10° W 11:16:20 37° NNW 11:19:22 10° NE visible
02 Aug 0.9 10:16:49 35° W 10:17:54 60° NNW 10:21:04 10° ENE visible
03 Aug 2.5 09:20:57 30° ENE 09:20:57 30° ENE 09:22:42 10° ENE visible
03 Aug 2.3 10:53:35 10° WNW 10:56:23 27° NNW 10:59:11 10° NE visible
04 Aug 1.7 09:57:21 34° NW 09:57:52 37° NNW 10:00:53 10° NE visible
05 Aug 3.3 09:01:28 20° NE 09:01:28 20° NE 09:02:35 10° ENE visible
05 Aug 2.7 10:33:52 10° WNW 10:36:28 22° N 10:39:05 10° NE visible
06 Aug 2.4 09:37:52 27° NNW 09:37:54 27° NNW 09:40:42 10° NE visible
06 Aug 2.9 11:12:35 10° NW 11:15:10 22° N 11:17:46 10° ENE visible
07 Aug 4.0 08:42:01 12° NE 08:42:01 12° NE 08:42:23 10° NE visible
07 Aug 2.9 10:14:18 11° NW 10:16:35 21° N 10:19:07 10° NE visible
08 Aug 3.0 09:18:30 21° N 09:18:30 21° N 09:20:36 10° NE visible
08 Aug 2.7 10:52:31 10° NW 10:55:16 26° NNE 10:58:01 10° ENE visible
